Date,TemperatureHighF,TemperatureAvgF,TemperatureLowF,DewpointHighF,DewpointAvgF,DewpointLowF,HumidityHigh,HumidityAvg,HumidityLow,PressureMaxIn,PressureMinIn,WindSpeedMaxMPH,WindSpeedAvgMPH,GustSpeedMaxMPH,PrecipitationSumIn
2013-1-1,47.7,42.8,38.1,45.8,38.5,34.3,93,85,71,30.03,29.49,17,8,18,0.04
2013-1-2,51.2,43.5,35.5,49.2,41.5,33.7,95,93,87,30.31,30.03,16,6,16,0.00
2013-1-3,53.0,50.9,48.1,49.8,48.5,46.3,95,91,88,30.60,30.31,18,8,18,0.00
2013-1-4,51.0,49.3,46.6,47.9,45.6,43.8,92,87,82,30.63,30.58,17,9,17,0.00
2013-1-5,51.4,48.3,44.1,48.6,46.0,42.3,96,91,86,30.58,30.50,16,6,16,0.00
2013-1-6,47.0,45.0,42.5,45.5,43.7,41.2,100,95,92,30.50,30.37,12,4,12,0.01
2013-1-7,48.3,46.4,44.7,46.6,44.2,42.5,94,92,90,30.37,30.23,14,7,14,0.00
2013-1-8,52.8,49.7,47.2,48.1,46.6,44.4,95,89,82,30.25,30.16,20,8,20,0.04
2013-1-9,49.8,44.4,33.4,47.9,41.4,31.9,99,90,73,30.16,30.05,12,4,12,0.06
2013-1-10,38.8,35.7,31.6,36.4,33.7,30.1,95,92,89,30.05,29.91,9,3,9,0.00
2013-1-11,45.8,37.4,32.2,40.2,34.9,30.7,96,91,77,30.07,29.96,9,2,9,0.00
2013-1-12,40.8,38.3,34.3,37.0,34.0,29.0,95,85,63,29.96,29.83,22,11,22,0.11
2013-1-13,38.9,35.8,33.0,35.1,30.3,27.8,86,80,74,30.12,29.94,18,7,18,0.00
2013-1-14,37.6,34.2,31.7,35.6,31.7,28.4,95,91,83,30.08,29.61,18,6,18,0.18
2013-1-15,36.2,34.1,28.1,32.8,30.9,26.3,96,88,82,29.86,29.61,20,7,20,0.00
2013-1-16,34.8,29.8,26.9,31.0,27.7,24.9,95,92,84,30.01,29.82,9,3,9,0.00
2013-1-17,37.1,31.7,24.2,32.5,28.0,22.5,95,87,76,30.07,29.86,12,2,12,0.01
2013-1-18,35.2,31.1,28.9,29.1,27.6,26.1,93,87,75,29.86,29.41,21,12,21,0.00
2013-1-19,33.8,32.3,30.8,32.8,29.1,26.6,96,88,82,29.47,29.38,24,10,24,0.02
2013-1-20,32.3,31.2,29.9,30.5,28.7,26.2,94,90,83,29.45,29.26,18,7,18,0.02
2013-1-21,36.7,31.6,27.3,32.2,29.2,25.4,100,91,81,29.48,29.25,7,2,7,0.11
2013-1-22,37.1,32.2,24.5,34.6,29.5,23.0,96,90,79,29.67,29.49,26,9,26,0.14
2013-1-23,37.0,35.8,34.8,33.2,31.7,30.3,92,85,81,29.79,29.67,20,10,20,0.04
2013-1-24,36.1,34.9,33.7,32.4,29.9,26.7,92,82,70,30.12,29.79,16,5,16,0.00
2013-1-25,37.9,34.4,30.3,35.4,30.0,26.4,91,84,77,30.10,29.55,24,8,24,0.02
2013-1-26,46.4,41.5,36.2,43.2,38.3,34.2,95,88,76,29.81,29.53,25,10,25,0.18
2013-1-27,50.6,46.1,39.5,48.4,40.6,35.5,94,82,59,29.60,29.25,32,16,32,0.23
2013-1-28,51.2,43.5,35.5,48.0,40.2,33.1,94,88,80,29.80,29.50,33,12,39,0.10
2013-1-29,56.4,52.3,47.4,53.3,49.4,44.6,95,90,80,29.64,29.53,39,15,39,0.02
2013-1-30,56.0,50.2,44.8,52.8,43.9,37.6,94,80,59,30.02,29.49,37,14,37,0.17
2013-1-31,50.5,47.8,44.6,45.5,41.4,38.5,91,79,66,30.03,29.78,32,14,33,0.14
2013-2-1,47.0,42.6,38.4,41.7,39.1,36.0,98,88,77,29.89,29.44,18,6,18,0.20
2013-2-2,42.5,39.3,32.3,37.4,32.0,26.2,91,75,62,30.23,29.54,21,9,21,0.00
2013-2-3,48.9,40.9,31.1,46.6,37.1,26.0,94,86,78,30.24,29.88,23,7,23,0.00
2013-2-4,51.5,48.1,42.9,46.8,40.2,35.0,90,75,55,29.92,29.69,29,15,29,0.00
2013-2-5,43.8,40.1,35.6,38.6,33.0,27.9,91,76,56,29.69,29.31,48,15,48,0.16
2013-2-6,43.6,40.3,35.9,38.9,33.8,28.1,90,78,66,30.04,29.34,31,15,31,0.04
2013-2-7,42.8,37.4,33.3,35.7,31.0,26.9,92,78,62,30.09,29.97,17,8,17,0.02
2013-2-8,43.7,37.7,32.3,36.4,32.9,30.0,93,83,63,30.13,30.01,20,8,20,0.01
2013-2-9,39.1,37.1,34.5,36.1,34.3,31.3,93,89,82,30.14,29.84,15,3,15,0.02
2013-2-10,41.3,38.1,33.2,39.4,36.4,31.7,95,94,92,29.84,29.25,22,9,22,0.44
2013-2-11,35.4,34.2,33.0,33.8,32.6,31.7,95,94,92,29.76,29.27,14,8,14,0.19
2013-2-12,35.9,34.8,33.6,32.8,30.1,27.8,93,83,75,30.12,29.75,14,6,14,0.01
2013-2-13,39.7,35.3,33.5,37.8,29.9,24.6,93,81,65,30.18,29.96,20,9,20,0.01
2013-2-14,54.1,45.1,39.8,46.6,40.7,37.4,95,85,62,29.96,29.71,17,8,26,0.03
2013-2-15,52.1,42.4,36.3,40.7,36.9,34.1,93,82,59,30.19,29.96,26,5,26,0.00
2013-2-16,52.5,43.5,36.2,39.9,36.7,33.4,92,78,53,30.23,30.17,9,2,9,0.00
2013-2-17,51.2,39.8,31.0,40.6,34.7,29.2,96,84,50,30.19,30.08,17,6,17,0.01
2013-2-18,49.3,39.6,33.0,37.9,34.7,30.6,94,83,59,30.12,30.07,16,6,16,0.00
2013-2-19,52.9,38.1,27.5,38.9,32.1,25.9,96,81,51,30.11,30.03,8,1,8,0.00
2013-2-20,42.3,37.9,35.3,37.8,32.2,27.3,95,80,65,30.24,30.08,27,13,27,0.02
2013-2-21,36.6,34.8,33.4,28.8,24.3,21.7,76,65,57,30.24,30.14,24,15,24,0.00
2013-2-22,35.7,33.9,32.7,26.4,24.0,21.5,74,67,60,30.15,30.08,25,13,25,0.00
2013-2-23,36.5,34.0,32.4,29.2,26.2,23.2,84,73,59,30.19,30.07,20,8,20,0.00
2013-2-24,36.5,34.7,33.0,29.7,28.2,26.8,85,77,71,30.26,30.17,18,10,18,0.00
2013-2-25,40.0,37.8,34.8,36.1,33.6,28.8,92,85,78,30.36,30.24,24,11,24,0.00
2013-2-26,40.9,39.1,36.8,38.2,36.7,34.5,94,91,88,30.54,30.35,18,10,18,0.02
2013-2-27,44.8,38.9,35.9,36.7,34.3,32.8,93,84,68,30.55,30.46,18,10,18,0.00
2013-2-28,47.5,39.9,34.6,38.5,34.8,31.7,90,82,69,30.47,30.31,20,9,20,0.00
2013-3-1,44.3,40.5,36.7,40.3,34.8,30.8,94,80,66,30.39,30.33,20,9,20,0.02
2013-3-2,43.7,37.7,29.3,33.3,30.8,26.6,90,76,65,30.39,30.26,15,5,15,0.00
2013-3-3,47.8,37.3,27.1,37.0,32.5,25.1,94,84,64,30.27,30.08,20,6,20,0.00
2013-3-4,51.2,41.0,34.8,38.5,35.0,32.1,91,80,60,30.08,29.72,21,9,21,0.00
2013-3-5,62.2,45.8,30.8,45.8,38.3,29.0,96,77,53,29.72,29.56,14,3,14,0.00
2013-3-6,56.7,50.0,45.1,45.5,42.6,39.7,86,76,64,29.56,29.48,14,4,14,0.01
2013-3-7,50.4,47.7,45.6,48.2,45.8,43.3,95,93,86,29.49,29.35,14,5,14,0.23
2013-3-8,50.5,48.8,46.9,49.1,47.3,45.4,96,95,94,29.53,29.36,12,4,12,0.17
2013-3-9,46.8,43.4,38.7,45.4,40.9,34.8,95,91,84,29.65,29.52,12,5,12,0.01
2013-3-10,39.4,36.8,34.0,34.8,32.1,28.3,88,83,78,29.73,29.64,27,14,27,0.00
2013-3-11,34.0,31.8,29.2,28.8,24.2,20.1,83,74,61,29.74,29.70,39,22,39,0.00
2013-3-12,41.7,34.6,28.5,32.4,23.7,17.8,85,65,45,29.80,29.72,39,17,39,0.00
2013-3-13,46.4,38.0,32.0,31.9,29.6,26.0,89,73,45,29.93,29.77,20,8,20,0.00
2013-3-14,46.7,37.3,28.1,32.5,26.9,22.8,93,69,43,30.00,29.90,14,5,14,0.00
2013-3-15,48.3,42.3,37.0,42.6,37.2,26.8,92,82,65,29.90,29.53,25,11,25,0.16
2013-3-16,47.4,44.1,42.5,42.5,40.6,38.4,91,87,81,29.53,29.26,36,17,36,0.20
2013-3-17,45.2,40.4,32.9,41.6,37.7,31.1,100,90,81,29.30,29.14,23,6,23,0.14
2013-3-18,46.0,37.8,29.6,42.5,35.7,28.1,96,92,81,29.34,29.20,12,2,12,0.09
2013-3-19,49.2,40.8,36.5,40.3,36.6,33.7,94,85,66,29.49,29.34,13,4,13,0.00
2013-3-20,46.4,39.7,36.1,39.2,35.8,33.5,93,86,72,29.98,29.49,13,6,13,0.00
2013-3-21,45.4,39.6,33.7,35.5,33.4,30.6,90,79,65,30.00,29.89,24,11,24,0.03
2013-3-22,42.2,38.6,36.1,36.2,34.6,32.5,91,86,77,29.90,29.70,33,19,33,0.20
2013-3-23,37.9,35.1,33.6,35.1,33.0,32.1,94,92,89,29.85,29.73,25,15,25,0.29
2013-3-24,34.8,33.1,31.8,32.4,28.1,24.1,91,82,66,29.92,29.84,28,14,28,0.00
2013-3-25,34.8,34.1,32.9,26.9,25.5,23.8,74,71,65,29.95,29.90,26,16,27,0.00
2013-3-26,35.4,34.3,33.2,27.6,25.4,24.2,78,70,65,29.92,29.86,23,12,23,0.00
2013-3-27,40.9,35.5,31.3,28.0,25.9,23.7,82,68,55,29.87,29.83,20,10,20,0.00
2013-3-28,41.6,35.9,29.7,31.0,26.3,22.1,89,69,51,29.93,29.83,20,8,20,0.00
2013-3-29,44.2,36.7,28.5,28.3,25.8,22.5,83,66,46,29.90,29.76,20,9,20,0.00
2013-3-30,42.9,37.6,34.2,32.5,28.8,27.1,80,71,57,29.96,29.76,18,9,18,0.00
2013-3-31,43.8,36.4,28.4,29.5,26.8,23.5,88,69,48,29.96,29.88,20,8,20,0.00
2013-4-1,44.7,37.7,34.2,30.4,27.4,23.8,81,67,48,29.88,29.82,29,14,29,0.00
2013-4-2,48.0,39.3,31.5,31.1,25.0,18.1,85,59,33,30.04,29.87,26,14,26,0.00
2013-4-3,41.2,37.1,32.5,30.5,26.6,23.7,86,67,53,30.04,29.97,30,15,30,0.00
2013-4-4,37.7,36.1,33.4,33.8,29.1,24.3,91,76,60,29.97,29.89,29,15,29,0.05
2013-4-5,46.9,39.8,35.1,31.7,28.3,23.0,82,65,40,30.10,29.87,28,15,28,0.00
2013-4-6,53.9,42.0,31.6,33.1,29.6,26.3,89,64,35,30.26,30.10,18,7,18,0.00
2013-4-7,52.7,41.5,28.4,33.6,28.1,22.8,92,62,32,30.26,29.86,20,5,20,0.00
2013-4-8,52.7,44.1,39.3,35.6,32.3,27.7,81,64,42,29.86,29.52,22,14,22,0.00
2013-4-9,49.9,43.7,39.2,42.6,39.1,35.5,92,84,72,29.53,29.36,20,9,20,0.08
2013-4-10,53.1,44.9,37.8,42.3,39.2,34.7,93,81,65,29.69,29.41,20,8,20,0.20
2013-4-11,56.7,47.2,42.7,48.5,43.8,41.1,94,88,69,29.48,29.34,24,8,24,0.17
2013-4-12,53.9,48.1,44.1,49.0,45.1,41.9,94,89,74,29.72,29.27,22,9,22,0.26
2013-4-13,53.3,48.2,38.4,50.5,45.1,36.1,94,89,73,29.89,29.73,23,10,24,0.17
2013-4-14,69.0,58.8,51.8,52.5,50.2,46.7,95,75,53,29.94,29.85,36,15,36,0.00
2013-4-15,61.3,54.9,48.3,49.5,47.5,44.3,86,76,64,30.04,29.92,22,12,22,0.00
2013-4-16,63.9,54.8,48.3,48.5,45.6,41.8,91,73,45,30.07,29.88,26,14,26,0.00
2013-4-17,67.2,56.4,48.1,53.0,49.6,45.1,94,79,57,30.07,29.75,28,14,28,0.00
2013-4-18,59.0,51.6,46.4,46.7,40.8,32.9,87,67,46,30.06,29.77,34,19,34,0.11
2013-4-19,58.6,49.9,43.4,42.8,39.9,33.4,85,70,40,30.48,30.06,21,10,21,0.00
2013-4-20,60.3,47.8,35.4,39.1,34.4,30.0,94,64,33,30.53,30.35,17,6,17,0.00
2013-4-21,60.1,47.4,33.1,41.4,35.3,29.8,91,66,38,30.35,30.00,18,6,18,0.00
2013-4-22,60.7,51.0,43.4,47.2,43.5,40.3,92,77,49,30.01,29.93,24,9,24,0.00
2013-4-23,71.8,59.0,49.3,51.4,48.4,46.7,92,70,45,30.19,29.96,17,8,17,0.00
2013-4-24,68.6,58.9,47.8,55.5,50.9,44.6,91,76,60,30.24,30.17,18,7,18,0.01
2013-4-25,74.6,60.9,51.2,57.6,51.4,48.1,93,73,45,30.23,29.99,23,9,23,0.00
2013-4-26,57.1,50.0,43.9,48.9,38.6,28.8,91,67,39,30.01,29.88,23,10,23,0.13
2013-4-27,55.6,45.1,38.7,40.3,36.5,32.6,86,72,50,30.09,29.87,22,9,22,0.02
2013-4-28,54.7,46.0,33.1,39.7,34.9,30.0,96,68,40,30.08,29.88,22,8,22,0.00
2013-4-29,59.1,51.4,45.7,42.9,37.8,33.6,87,62,40,30.15,29.86,21,10,21,0.00
2013-4-30,60.2,50.4,39.7,41.8,37.4,32.4,87,63,37,30.29,30.15,21,8,21,0.00
2013-5-1,65.3,51.5,39.7,42.4,36.8,31.9,88,62,32,30.29,30.13,17,7,17,0.00
2013-5-2,67.7,54.3,41.0,36.8,30.0,19.1,67,43,19,30.20,30.13,18,7,18,0.00
2013-5-3,69.2,55.2,39.0,46.2,40.1,33.8,87,59,34,30.16,30.01,19,7,19,0.00
2013-5-4,63.1,54.4,45.8,51.1,42.8,37.0,85,67,40,30.11,29.95,28,12,28,0.02
2013-5-5,68.7,57.4,43.6,51.8,47.2,39.8,88,70,52,30.18,30.11,13,5,15,0.00
2013-5-6,74.4,62.5,51.4,51.6,48.3,43.8,85,62,40,30.15,30.01,13,4,13,0.00
2013-5-7,74.6,61.6,46.0,50.8,46.0,42.1,90,59,35,30.06,29.84,18,6,18,0.00
2013-5-8,64.7,57.4,50.1,55.0,50.2,44.8,93,77,61,29.83,29.67,24,10,24,0.03
2013-5-9,59.4,51.5,44.0,48.1,43.4,38.8,90,75,49,29.82,29.65,39,18,39,0.07
2013-5-10,63.2,54.9,49.0,49.7,46.8,43.7,87,75,51,29.91,29.66,28,16,28,0.01
2013-5-11,56.9,50.2,43.1,49.9,43.6,39.3,92,79,57,29.90,29.77,32,12,32,0.14
2013-5-12,60.1,50.6,42.0,50.6,43.6,38.7,92,78,47,29.99,29.88,21,12,21,0.02
2013-5-13,59.9,53.3,47.7,50.5,43.2,37.1,93,70,44,29.89,29.78,32,15,32,0.02
2013-5-14,53.9,48.7,45.0,47.5,43.1,39.5,93,81,60,29.80,29.20,31,11,31,0.26
2013-5-15,58.2,48.6,43.3,44.8,40.8,37.3,90,75,50,29.53,29.12,33,14,33,0.04
2013-5-16,63.6,51.1,37.4,46.9,40.8,35.6,95,71,37,29.54,29.45,18,4,18,0.00
2013-5-17,54.7,49.8,41.5,45.5,42.9,38.8,94,77,66,29.79,29.54,16,5,16,0.00
2013-5-18,61.7,54.2,48.1,46.0,44.4,42.1,83,70,55,29.78,29.69,16,6,16,0.00
2013-5-19,67.0,57.6,46.9,50.2,47.4,43.6,90,70,52,29.87,29.75,15,5,15,0.00
2013-5-20,63.2,58.2,52.2,57.4,53.4,48.6,90,84,78,29.88,29.81,18,9,18,0.01
2013-5-21,61.4,56.8,54.0,56.1,50.4,47.9,87,79,66,30.05,29.88,21,8,21,0.00
2013-5-22,58.9,53.2,47.4,48.0,44.3,36.1,89,72,51,30.08,29.99,23,9,23,0.00
2013-5-23,54.2,47.8,42.6,39.7,36.8,32.0,79,66,47,29.99,29.86,24,12,24,0.00
2013-5-24,49.2,44.7,42.2,45.6,40.5,36.7,92,85,78,30.00,29.60,24,12,24,0.25
2013-5-25,61.6,51.9,41.1,44.0,40.3,37.5,93,67,43,30.14,30.00,17,8,17,0.00
2013-5-26,69.8,57.3,41.6,44.2,40.3,35.1,87,56,36,30.11,29.93,18,8,18,0.00
2013-5-27,65.8,55.9,43.0,45.0,40.8,33.8,86,59,33,29.93,29.60,28,11,28,0.00
2013-5-28,53.7,51.9,49.2,51.5,47.9,42.4,94,87,66,29.60,29.45,13,3,13,0.61
2013-5-29,56.9,51.7,46.1,52.2,48.2,43.9,93,88,75,29.74,29.54,17,6,17,0.02
2013-5-30,60.5,55.1,51.9,53.1,51.1,49.6,94,87,75,29.98,29.72,18,9,18,0.14
2013-5-31,73.4,61.6,52.4,56.1,51.9,48.3,88,72,51,30.10,29.97,18,9,18,0.00
2013-6-1,66.5,58.7,51.1,50.2,45.7,42.0,78,63,44,30.28,30.10,22,10,22,0.00
2013-6-2,68.5,58.9,48.5,47.1,43.6,41.1,84,59,40,30.41,30.28,20,7,20,0.00
2013-6-3,69.0,58.1,45.9,48.1,44.4,41.1,91,63,41,30.46,30.37,20,7,20,0.00
2013-6-4,71.6,59.8,46.9,49.0,43.7,38.6,83,57,38,30.40,30.18,24,11,24,0.00
2013-6-5,73.1,59.4,48.3,51.3,47.7,43.4,85,67,43,30.20,30.06,16,9,16,0.00
2013-6-6,75.1,61.2,47.9,55.3,48.8,43.8,86,65,47,30.17,30.09,18,10,18,0.00
2013-6-7,70.6,59.5,49.3,54.6,48.8,43.8,88,69,51,30.20,30.14,22,10,22,0.15
2013-6-8,67.3,57.4,48.5,49.1,46.4,43.9,84,68,49,30.19,30.04,23,13,23,0.00
2013-6-9,59.8,55.2,51.3,48.2,46.1,44.0,81,71,62,30.05,29.94,20,11,20,0.00
2013-6-10,62.0,55.6,51.4,49.2,45.1,42.0,77,68,58,29.98,29.93,13,5,13,0.00
2013-6-11,64.9,57.5,48.4,60.1,52.3,43.7,90,83,78,29.95,29.87,18,8,18,0.00
2013-6-12,63.0,60.3,57.2,59.2,56.1,52.7,92,86,75,29.87,29.77,25,14,25,0.06
2013-6-13,66.0,58.4,53.8,55.5,51.2,46.3,91,78,62,30.02,29.76,33,16,33,0.00
2013-6-14,68.7,58.3,48.0,53.2,48.5,42.2,88,72,39,30.04,29.77,22,10,22,0.00
2013-6-15,62.8,57.5,51.8,54.7,50.0,44.5,92,77,53,29.86,29.67,30,14,30,0.22
2013-6-16,67.2,58.9,52.4,53.0,49.6,47.1,87,72,55,29.94,29.85,17,7,17,0.00
2013-6-17,70.8,62.5,55.2,53.0,50.6,48.5,82,66,49,29.95,29.88,23,11,23,0.00
2013-6-18,71.2,64.3,56.4,62.1,56.9,51.2,89,77,64,29.95,29.88,15,5,15,0.00
2013-6-19,82.2,69.8,59.7,63.9,60.0,56.9,92,73,47,29.95,29.89,21,5,21,0.00
2013-6-20,70.8,66.0,60.6,62.8,59.5,56.1,86,80,71,29.93,29.76,16,6,16,0.00
2013-6-21,72.8,63.5,57.6,60.8,57.4,54.1,92,81,63,29.85,29.74,21,9,21,0.00
2013-6-22,65.0,58.6,53.2,57.0,52.8,50.3,94,82,67,29.84,29.63,29,17,29,0.10
2013-6-23,65.0,58.8,53.4,54.5,51.9,48.8,90,78,64,30.00,29.64,29,15,29,0.02
2013-6-24,63.6,57.3,51.3,49.0,46.0,43.0,87,67,49,30.27,30.00,20,10,20,0.01
2013-6-25,71.7,61.6,51.0,49.4,46.3,42.4,81,59,37,30.39,30.27,15,4,15,0.00
2013-6-26,71.8,62.8,49.5,52.9,49.5,45.6,89,64,44,30.41,30.33,15,6,15,0.00
2013-6-27,70.2,60.4,53.9,54.1,50.2,47.6,92,70,47,30.36,30.16,17,8,17,0.03
2013-6-28,70.0,61.5,54.1,63.2,57.7,51.8,94,87,76,30.16,30.02,21,8,21,0.06
2013-6-29,74.0,64.9,56.1,57.8,50.5,46.2,86,61,41,30.22,30.05,21,9,21,0.00
2013-6-30,81.0,68.8,58.7,61.1,57.0,51.6,91,68,41,30.22,30.04,20,10,20,0.00
2013-7-1,71.0,63.5,56.9,52.9,50.6,47.9,83,64,45,30.06,29.96,20,9,20,0.00
2013-7-2,64.1,59.1,53.6,55.1,51.1,48.2,86,75,60,29.97,29.64,20,8,20,0.00
2013-7-3,71.3,62.6,57.9,58.9,56.4,53.6,94,81,63,29.99,29.59,20,9,20,0.08
2013-7-4,76.5,65.4,54.4,62.9,57.0,50.8,91,75,57,30.23,29.99,21,9,21,0.00
2013-7-5,81.5,68.1,53.9,60.8,54.8,50.8,91,65,40,30.40,30.23,15,4,15,0.00
2013-7-6,85.7,71.3,55.1,62.8,56.1,50.6,88,62,36,30.40,30.31,12,4,12,0.00
2013-7-7,87.8,74.6,60.6,62.3,58.5,54.3,91,61,34,30.48,30.39,17,6,17,0.00
2013-7-8,83.6,72.2,60.4,61.8,56.6,52.6,80,60,42,30.50,30.39,23,10,23,0.00
2013-7-9,83.8,69.8,55.1,54.9,48.8,42.8,81,51,26,30.42,30.23,17,8,17,0.00
2013-7-10,77.8,67.3,55.8,59.7,53.5,46.5,77,62,47,30.27,30.21,24,9,24,0.00
2013-7-11,76.8,63.3,53.2,53.8,48.9,44.9,80,61,40,30.28,30.19,15,9,15,0.00
2013-7-12,81.5,66.4,54.4,58.3,53.9,48.7,82,66,44,30.28,30.18,13,5,13,0.00
2013-7-13,90.8,75.7,59.5,65.9,61.1,55.5,88,63,39,30.22,30.18,13,5,13,0.00
2013-7-14,86.8,75.9,62.8,64.8,59.5,54.3,85,60,37,30.22,30.15,17,5,17,0.00
2013-7-15,91.2,77.9,64.3,59.4,50.7,43.3,69,42,22,30.21,30.15,14,5,14,0.00
2013-7-16,91.0,77.7,63.8,61.1,58.0,53.1,80,53,33,30.19,30.13,14,4,14,0.00
2013-7-17,92.2,77.8,63.5,61.3,58.4,55.4,76,53,33,30.25,30.17,14,4,14,0.00
2013-7-18,86.6,75.3,64.5,61.7,58.1,54.3,78,57,37,30.29,30.23,22,8,22,0.00
2013-7-19,85.3,73.3,60.5,60.3,55.9,49.2,71,56,39,30.28,30.18,21,11,21,0.00
2013-7-20,76.7,68.7,62.3,61.2,58.9,55.7,85,71,57,30.23,30.12,20,10,20,0.00
2013-7-21,82.7,70.6,63.0,63.0,59.4,54.1,83,69,47,30.15,30.00,18,8,18,0.00
2013-7-22,93.3,77.3,63.6,68.3,62.7,59.1,93,64,37,30.03,29.92,15,6,15,0.33
2013-7-23,86.3,74.8,66.3,70.9,64.6,58.6,87,71,53,29.93,29.86,15,5,15,0.20
2013-7-24,82.3,70.3,59.3,61.7,58.9,55.6,88,69,46,29.95,29.90,17,7,17,0.00
2013-7-25,81.1,70.2,62.5,66.0,61.0,56.3,94,74,46,29.92,29.85,20,7,20,0.35
2013-7-26,82.3,70.2,57.1,59.3,56.4,52.3,91,64,44,29.90,29.82,12,4,12,0.00
2013-7-27,85.2,68.8,57.6,66.9,57.5,51.7,93,70,38,29.83,29.56,18,4,18,0.28
2013-7-28,77.1,67.3,58.5,60.6,58.1,55.2,93,74,53,29.76,29.57,24,13,24,0.13
2013-7-29,75.3,65.9,59.8,63.0,58.7,54.9,93,79,55,29.94,29.75,26,12,26,0.24
2013-7-30,72.5,63.9,59.1,65.5,59.9,56.5,94,87,72,29.95,29.83,17,8,17,0.14
2013-7-31,75.9,67.5,61.3,65.2,61.2,57.5,90,81,67,29.97,29.92,21,10,21,0.00
2013-8-1,93.1,77.5,61.2,69.1,64.0,58.7,93,66,36,29.92,29.66,23,8,23,0.00
2013-8-2,80.0,70.1,63.5,65.0,60.2,53.8,90,72,45,29.81,29.72,19,10,19,0.03
2013-8-3,77.0,67.1,58.8,59.9,56.8,53.6,92,71,47,30.07,29.78,25,11,25,0.04
2013-8-4,75.2,66.1,56.5,58.7,56.4,54.2,93,73,50,30.09,30.01,22,9,22,0.00
2013-8-5,74.5,65.7,60.4,63.4,58.9,56.0,93,80,57,30.01,29.74,20,7,22,0.31
2013-8-6,75.5,64.6,52.2,58.0,52.9,49.0,95,69,41,30.01,29.89,14,3,14,0.00
2013-8-7,75.5,66.2,57.8,56.8,52.3,48.4,89,63,42,30.01,29.89,20,6,20,0.00
2013-8-8,79.8,66.6,52.1,58.7,52.4,48.1,88,62,38,30.10,30.01,20,4,20,0.00
2013-8-9,77.8,67.2,60.7,62.5,55.4,48.8,93,68,43,30.16,30.00,22,8,22,0.06
2013-8-10,74.4,65.2,56.3,52.9,50.0,47.5,77,59,41,30.18,30.11,18,7,18,0.00
2013-8-11,75.8,71.6,62.8,53.8,51.0,49.3,66,49,42,30.11,29.99,20,11,21,0.00
2013-8-12,71.9,63.3,56.0,53.5,49.3,44.3,85,62,40,30.07,29.97,20,7,20,0.00
2013-8-13,71.6,60.0,50.5,57.2,50.7,46.5,92,73,45,30.18,30.07,20,7,20,0.04
2013-8-14,75.1,62.7,50.1,59.4,55.2,48.2,95,79,50,30.20,30.12,16,5,16,0.03
2013-8-15,74.8,67.3,61.6,65.6,61.4,58.1,94,82,64,30.12,29.98,22,9,22,0.03
2013-8-16,74.5,66.1,62.0,64.4,61.2,58.1,92,85,70,29.99,29.91,18,8,18,0.03
2013-8-17,69.3,62.6,56.3,60.1,57.2,54.3,94,83,66,29.96,29.71,24,11,24,0.01
2013-8-18,75.3,66.7,60.3,61.5,57.8,52.5,93,75,50,29.88,29.70,20,10,20,0.01
2013-8-19,75.1,64.5,53.2,54.7,50.9,48.3,88,63,42,30.29,29.88,15,7,15,0.00
2013-8-20,79.1,65.9,52.3,55.0,51.7,48.0,89,63,38,30.34,30.26,12,4,12,0.00
2013-8-21,82.2,68.0,53.6,58.9,54.4,50.2,91,65,39,30.28,30.12,15,4,15,0.01
2013-8-22,74.8,65.8,61.4,66.4,62.1,58.9,94,88,70,30.14,30.03,14,4,14,0.19
2013-8-23,81.9,70.4,60.5,63.4,60.4,55.9,94,73,46,30.04,29.83,20,7,20,0.00
2013-8-24,67.8,63.5,57.2,62.5,60.2,54.6,93,89,80,29.85,29.79,17,7,17,0.58
2013-8-25,77.7,64.3,54.8,63.7,58.1,52.3,94,82,55,30.02,29.81,22,8,22,0.13
2013-8-26,79.8,68.0,59.8,62.5,56.9,50.1,90,70,43,30.07,30.01,14,5,14,0.00
2013-8-27,80.5,64.6,53.3,58.9,52.7,47.9,94,69,39,30.10,30.02,12,4,12,0.00
2013-8-28,81.0,65.5,53.4,57.3,52.8,49.0,92,67,37,30.20,30.10,8,2,9,0.00
2013-8-29,77.3,66.6,57.4,58.5,55.6,53.4,92,70,46,30.17,30.10,17,5,17,0.00
2013-8-30,78.8,67.1,57.5,61.4,58.3,54.5,92,75,50,30.12,30.02,23,8,23,0.00
2013-8-31,73.3,63.8,56.5,59.6,48.5,41.9,91,60,36,30.38,30.10,22,8,22,0.00
2013-9-1,72.3,60.2,48.1,52.5,47.9,43.1,89,65,45,30.42,30.30,16,7,16,0.00
2013-9-2,80.3,65.9,52.1,59.9,55.3,49.2,90,70,49,30.33,30.26,16,7,16,0.00
2013-9-3,80.7,67.4,55.8,62.3,58.6,53.2,93,75,49,30.33,30.24,8,1,8,0.00
2013-9-4,85.3,69.5,54.5,64.2,57.6,52.3,95,70,38,30.24,29.97,18,4,18,0.00
2013-9-5,87.6,71.4,57.4,63.7,58.6,51.3,94,68,40,29.97,29.73,15,4,15,0.00
2013-9-6,65.3,60.5,58.6,56.2,54.1,52.7,89,79,68,29.76,29.70,12,4,12,0.04
2013-9-7,85.7,57.7,50.9,53.3,49.5,46.9,91,75,52,30.02,29.74,22,6,22,0.03
2013-9-8,63.7,53.2,46.3,53.1,48.4,44.1,94,84,59,30.05,30.01,21,4,21,0.15
2013-9-9,55.9,52.2,45.5,54.1,50.0,43.6,95,92,90,30.03,29.94,14,3,14,0.16
2013-9-10,62.9,55.6,48.1,51.8,48.5,45.9,93,78,59,30.13,30.03,21,9,21,0.00
2013-9-11,63.3,57.5,53.5,53.9,50.4,47.1,93,78,62,30.15,30.09,21,10,21,0.08
2013-9-12,67.8,59.5,54.7,58.6,55.6,52.9,95,88,69,30.09,30.04,10,3,10,0.07
2013-9-13,66.5,62.1,57.1,64.0,60.3,55.3,96,94,89,30.04,29.85,15,4,15,0.68
2013-9-14,57.5,53.0,48.8,55.2,49.5,45.9,95,88,74,30.05,29.85,20,7,20,0.07
2013-9-15,59.9,51.6,42.6,58.2,48.2,41.0,95,88,61,30.04,29.52,29,7,29,0.07
2013-9-16,59.4,52.6,45.7,48.9,42.6,39.5,87,70,50,29.62,29.55,30,12,30,0.01
2013-9-17,58.1,52.5,45.5,56.4,48.2,41.3,94,85,69,29.62,29.32,15,7,15,0.17
2013-9-18,61.2,55.6,49.8,53.5,48.2,43.6,92,77,58,29.85,29.38,20,8,20,0.00
2013-9-19,63.0,53.6,44.5,60.0,49.6,41.9,94,86,72,29.88,29.71,27,7,27,0.02
2013-9-20,68.9,57.9,49.6,51.8,49.8,47.1,92,76,53,30.16,29.85,13,5,13,0.00
2013-9-21,66.3,58.5,49.7,60.6,54.5,46.7,93,87,79,30.28,30.16,13,5,13,0.00
2013-9-22,67.5,62.5,56.0,61.5,59.2,54.0,95,89,80,30.35,30.28,12,3,12,0.00
2013-9-23,69.7,60.4,53.2,60.7,56.8,51.3,95,88,72,30.31,30.09,9,2,9,0.00
2013-9-24,74.7,61.2,48.5,62.5,56.1,46.9,96,84,64,30.09,29.90,7,2,8,0.00
2013-9-25,73.7,63.7,56.0,61.6,57.7,53.9,95,82,60,29.90,29.80,12,2,12,0.00
2013-9-26,69.5,61.2,55.5,58.4,53.3,49.9,88,76,54,30.03,29.88,15,7,15,0.00
2013-9-27,66.3,56.7,48.8,52.6,50.3,46.6,93,80,59,30.03,29.90,20,7,20,0.00
2013-9-28,66.5,59.8,54.5,58.2,53.5,49.9,92,80,63,29.90,29.71,23,11,23,0.01
2013-9-29,66.4,60.1,57.0,55.1,53.2,52.1,85,78,66,29.72,29.68,21,11,21,0.01
2013-9-30,66.3,60.2,55.6,56.0,53.1,50.0,89,78,59,29.75,29.66,18,8,18,0.00
2013-10-1,63.9,58.4,53.6,57.1,52.8,50.1,91,82,72,29.80,29.73,20,9,20,0.00
2013-10-2,71.5,62.1,57.2,61.9,57.0,52.0,92,84,70,29.86,29.76,16,7,16,0.02
2013-10-3,58.3,57.2,55.8,56.3,55.4,54.1,95,94,93,29.85,29.80,4,1,6,0.03
2013-10-6,69.0,60.9,52.8,53.7,51.9,50.3,92,74,55,30.27,30.23,10,3,10,0.01
2013-10-7,69.2,58.7,49.7,58.5,53.8,47.9,96,85,65,30.28,30.22,12,4,12,0.00
2013-10-8,68.9,61.8,54.4,59.7,57.2,52.0,94,85,70,30.26,30.20,18,5,18,0.00
2013-10-9,64.2,56.6,47.2,56.6,49.9,39.3,91,79,63,30.22,29.96,26,9,26,0.00
2013-10-10,53.7,48.5,44.9,43.7,39.5,37.5,79,71,59,30.10,29.99,27,14,27,0.02
2013-10-11,56.6,52.5,47.1,52.5,48.1,39.9,93,85,70,30.10,29.93,28,16,28,0.22
2013-10-12,60.4,53.4,48.0,53.1,47.8,43.9,93,82,58,30.10,29.94,17,6,28,0.07
2013-10-13,52.8,50.3,47.7,51.1,48.1,45.8,94,92,89,29.99,29.75,17,7,22,0.37
2013-10-14,53.6,49.5,47.8,48.9,46.8,45.6,96,91,83,29.76,29.68,15,8,15,0.07
2013-10-15,57.3,50.2,45.5,49.8,46.7,43.2,94,88,75,29.93,29.72,12,5,13,0.00
2013-10-16,60.4,50.3,41.1,58.1,47.6,39.2,96,91,76,29.95,29.66,24,7,24,0.13
2013-10-17,64.1,57.4,51.2,55.8,52.7,48.9,92,85,72,29.98,29.78,20,9,20,0.00
2013-10-18,63.4,56.2,49.1,57.9,53.0,47.3,96,89,79,30.00,29.75,21,6,21,0.00
2013-10-19,63.6,58.5,54.4,60.2,55.8,52.1,94,91,83,29.75,29.61,21,7,21,0.05
2013-10-20,63.2,56.6,53.3,57.3,53.9,51.3,94,91,81,29.72,29.61,24,10,24,0.41
2013-10-21,64.0,59.8,54.8,58.9,56.5,52.8,94,89,82,29.73,29.58,27,11,27,0.02
2013-10-22,65.7,61.3,55.5,60.3,57.8,53.5,93,88,82,29.58,29.31,25,11,25,0.31
2013-10-23,63.8,57.4,47.6,56.5,52.1,44.8,94,83,63,29.84,29.23,28,13,28,0.07
2013-10-24,63.9,52.3,41.1,55.2,48.2,39.2,96,86,70,29.96,29.79,13,4,13,0.00
2013-10-25,65.0,60.1,55.2,60.0,56.1,52.6,95,87,77,29.79,29.57,23,11,23,0.06
2013-10-26,63.1,59.4,57.8,57.1,55.3,54.0,92,86,78,29.68,29.58,29,14,29,0.02
2013-10-27,61.7,56.6,51.8,55.6,51.6,48.0,94,84,66,29.58,29.20,32,12,32,0.47
2013-10-28,60.2,53.9,47.1,58.4,49.4,43.3,95,85,68,29.57,28.86,59,17,59,0.43
2013-10-29,55.5,48.0,40.4,46.5,42.4,38.3,93,82,60,30.04,29.57,24,9,24,0.00
2013-10-30,56.4,46.6,35.8,51.6,42.6,34.0,96,87,68,30.16,30.04,21,6,21,0.01
2013-10-31,55.9,54.4,52.9,53.2,51.6,49.9,94,90,85,30.05,29.91,20,9,20,0.05
2013-11-1,57.8,54.5,52.1,54.4,51.4,49.6,94,90,85,29.91,29.52,18,6,20,0.02
2013-11-2,60.1,52.8,49.0,53.2,47.8,41.7,95,84,70,29.56,29.36,32,12,32,0.02
2013-11-3,54.2,48.6,45.5,45.5,42.0,39.4,94,78,63,29.56,29.01,32,13,32,0.38
2013-11-4,51.5,44.9,39.0,45.7,40.2,36.4,94,84,66,29.47,28.98,22,9,22,0.13
2013-11-5,54.3,47.4,37.6,50.3,43.1,35.1,95,86,68,29.49,29.22,32,9,32,0.19
2013-11-6,59.2,53.8,48.6,56.2,50.8,43.6,95,90,81,29.52,29.45,27,10,27,0.09
2013-11-7,58.5,50.2,44.2,55.7,45.7,41.6,92,85,68,29.75,29.50,17,5,17,0.15
2013-11-8,44.1,43.0,41.7,41.5,40.6,39.5,92,91,91,29.76,29.74,5,1,5,0.00
2013-11-9,46.0,42.8,41.2,44.1,41.1,39.6,95,94,92,29.64,29.59,8,2,8,0.12
2013-11-10,51.0,42.5,34.7,42.0,37.9,32.9,95,85,59,30.25,29.59,18,6,18,0.01
2013-11-11,55.1,48.3,34.9,53.8,46.7,33.3,96,94,92,30.24,30.11,17,6,17,0.08
2013-11-12,55.2,50.3,38.7,53.8,47.2,36.4,96,89,76,30.49,30.12,17,5,17,0.05
2013-11-13,51.7,42.0,33.7,44.0,38.1,32.2,96,87,69,30.54,30.18,17,4,17,0.00
2013-11-14,49.7,45.9,40.2,44.9,40.4,35.4,90,81,69,30.39,30.09,29,13,29,0.02
2013-11-15,51.0,42.1,36.0,40.4,36.1,32.9,91,80,64,30.51,30.39,17,6,17,0.00
2013-11-16,48.8,40.9,31.4,44.0,38.2,29.8,95,90,80,30.50,30.35,13,2,13,0.00
2013-11-17,49.6,47.7,45.5,46.7,44.9,43.1,94,90,86,30.35,29.99,7,2,7,0.02
2013-11-18,49.0,47.2,44.1,46.7,45.1,40.8,95,92,85,29.99,29.74,17,5,17,0.01
2013-11-19,44.3,38.7,31.5,40.7,33.0,27.6,92,80,61,30.04,29.77,21,8,21,0.00
2013-11-20,45.0,37.6,29.0,42.5,34.5,26.6,93,89,80,30.02,29.38,27,9,27,0.17
2013-11-21,47.3,41.5,38.0,39.7,37.0,34.6,93,84,65,29.91,29.39,27,12,27,0.01
2013-11-22,47.3,41.1,37.5,38.2,36.1,33.4,92,83,67,30.14,29.91,21,10,21,0.00
2013-11-23,46.9,41.6,36.1,39.7,37.8,34.3,94,86,73,30.29,30.13,18,8,18,0.00
2013-11-24,47.2,43.7,40.3,43.4,39.2,36.5,92,84,75,30.54,30.29,18,8,18,0.01
2013-11-25,45.8,42.3,40.0,38.8,37.5,35.8,91,83,75,30.66,30.54,17,8,17,0.00
2013-11-26,45.9,41.4,33.3,39.5,35.5,30.4,91,80,69,30.69,30.55,12,5,12,0.00
2013-11-27,51.4,46.7,42.8,48.0,44.2,38.8,94,91,85,30.55,30.46,7,2,7,0.01
2013-11-28,50.7,48.3,46.6,46.3,45.2,44.1,92,89,84,30.54,30.49,9,3,9,0.00
2013-11-29,50.5,47.0,43.5,44.6,41.8,37.7,92,82,68,30.50,30.16,25,10,25,0.00
2013-11-30,49.3,43.4,36.8,41.1,37.5,34.0,90,80,73,30.44,30.16,20,9,20,0.00
2013-12-1,49.3,42.7,34.4,43.5,39.3,31.8,93,88,79,30.54,30.42,9,3,9,0.00
2013-12-2,49.7,46.2,42.0,43.3,41.5,38.1,91,84,74,30.54,30.43,12,2,12,0.00
2013-12-3,44.2,43.0,41.4,39.6,36.9,34.9,87,79,76,30.43,30.30,12,4,12,0.00
2013-12-4,47.9,42.3,31.7,43.9,37.3,29.6,92,83,66,30.47,30.28,14,6,14,0.00
2013-12-5,50.8,41.1,30.3,45.2,35.2,28.4,100,80,58,30.46,30.00,33,13,33,0.03
2013-12-6,46.9,42.4,36.4,42.1,35.9,31.1,91,78,66,30.36,30.22,21,8,21,0.00
2013-12-7,48.2,45.3,42.6,43.9,42.3,40.3,92,89,81,30.33,30.25,13,6,13,0.00
2013-12-8,53.5,45.9,39.8,46.5,42.5,37.7,94,88,75,30.29,30.23,20,8,20,0.00
2013-12-9,52.4,43.5,34.9,47.5,41.3,33.3,96,92,83,30.39,30.29,12,4,12,0.01
2013-12-10,47.0,39.3,33.0,45.2,37.5,31.5,96,93,89,30.44,30.39,7,1,7,0.01
2013-12-11,39.3,34.5,30.9,38.3,33.3,29.6,96,95,93,30.42,30.29,4,0,4,0.01
2013-12-12,46.9,38.7,29.7,45.8,37.5,28.4,97,96,94,30.29,30.17,7,1,7,0.01
2013-12-13,53.3,49.1,45.1,49.6,46.7,42.3,96,92,81,30.17,30.00,15,6,17,0.06
2013-12-14,52.0,46.0,36.8,47.8,42.5,34.7,94,87,76,30.28,30.04,30,11,30,0.00
2013-12-15,54.1,51.5,43.8,52.2,49.1,41.9,95,92,85,30.15,29.97,26,12,26,0.13
2013-12-16,54.8,51.9,44.6,52.5,49.9,42.6,95,93,88,30.11,29.92,28,12,28,0.35
2013-12-17,45.0,42.5,40.1,43.7,40.6,38.4,95,93,90,30.25,29.95,12,3,12,0.16
2013-12-18,50.2,46.6,39.7,47.9,44.3,38.3,96,92,86,29.96,29.28,34,14,34,0.19
2013-12-19,48.5,43.4,37.1,46.3,39.1,35.4,94,85,68,29.84,29.30,16,8,26,0.17
2013-12-20,51.1,43.3,35.4,46.1,39.5,33.6,94,87,75,30.16,29.84,30,12,30,0.00
2013-12-21,53.2,50.9,48.3,50.4,48.1,42.7,95,90,78,30.03,29.69,37,19,37,0.28
2013-12-22,50.4,46.2,39.6,44.8,40.4,35.5,88,80,67,29.90,29.70,28,12,29,0.01
2013-12-23,53.1,48.2,39.7,50.5,45.2,35.6,93,89,85,29.90,28.85,48,20,48,0.73
2013-12-24,52.7,46.5,43.4,50.1,42.9,38.9,93,87,81,28.97,28.77,53,14,53,0.35
2013-12-25,43.4,43.4,43.4,38.9,38.9,38.9,84,84,84,28.97,28.97,9,8,9,0.00
2013-12-26,45.6,41.5,36.2,42.6,38.3,34.6,99,88,80,29.48,28.97,32,8,32,0.00
2013-12-27,51.7,48.2,44.5,50.1,42.7,37.1,94,81,71,29.25,28.98,34,18,34,0.11
2013-12-28,47.5,40.8,34.4,39.6,36.2,32.6,94,84,73,29.69,29.24,17,5,17,0.00
2013-12-29,46.1,37.3,30.2,39.0,34.6,28.7,95,90,76,30.07,29.69,13,4,13,0.01
2013-12-30,50.5,47.6,39.7,47.5,44.8,36.7,94,90,86,30.05,29.65,36,16,36,0.20
2013-12-31,51.0,46.1,41.1,47.0,43.4,38.1,95,90,86,29.84,29.54,26,10,26,0.26
2014-1-1,51.9,47.8,42.8,49.3,45.3,40.2,94,91,84,29.56,29.02,33,17,33,0.38
2014-1-2,51.5,47.6,42.3,46.9,44.2,40.3,94,88,75,29.44,29.05,24,10,24,0.13